YM2KV-13 Weather Reports


time (UTC)temp
C
wind
direction
speed
KPH
gust
KPH
rain 1hr
cm
rain 24hr
cm
rain mn
cm
humidity
%
barometer
mb
20260906111956 30 0.0 0.0 0.00 0.00 0.00 49 1027.2
20260906110956 30 0.0 0.0 0.00 0.00 0.00 49 1027.3
20260906105956 31 0.0 0.0 0.00 0.00 0.00 44 1027.2
20260906104956 31 0.0 0.0 0.00 0.00 0.00 46 1027.5
20260906103956 30 0.0 0.0 0.00 0.00 0.00 47 1027.4
20260906102956 32 0.0 0.0 0.00 0.00 0.00 43 1027.4
20260906101956 31 0.0 0.0 0.00 0.00 0.00 49 1027.2
20260906100956 30 0.0 0.0 0.00 0.00 0.00 50 1027.2
20260906095956 31 0.0 0.0 0.00 0.00 0.00 49 1027.4
20260906094956 30 0.0 0.0 0.00 0.00 0.00 52 1027.4
20260906093956 30 0.0 0.0 0.00 0.00 0.00 53 1027.4
20260906092956 30 0.0 0.0 0.00 0.00 0.00 54 1027.3
20260906091956 30 0.0 0.0 0.00 0.00 0.00 53 1027.2
20260906090956 31 0.0 0.0 0.00 0.00 0.00 52 1027.2
20260906085956 29 0.0 0.0 0.00 0.00 0.00 52 1027.2
20260906084956 28 0.0 0.0 0.00 0.00 0.00 52 1027.1
20260906083956 28 0.0 0.0 0.00 0.00 0.00 53 1027.3
20260906082956 27 0.0 0.0 0.00 0.00 0.00 53 1027.3
20260906081956 28 0.0 0.0 0.00 0.00 0.00 54 1027.4
20260906080956 27 0.0 0.0 0.00 0.00 0.00 56 1027.5
20260906075956 26 0.0 0.0 0.00 0.00 0.00 56 1027.4
20260906074956 25 0.0 0.0 0.00 0.00 0.00 57 1027.5
20260906073956 25 0.0 0.0 0.00 0.00 0.00 59 1027.5
20260906072956 25 0.0 0.0 0.00 0.00 0.00 59 1027.6
20260906071956 24 0.0 0.0 0.00 0.00 0.00 61 1027.7
20260906070956 23 0.0 0.0 0.00 0.00 0.00 62 1027.8
20260906065956 23 0.0 0.0 0.00 0.00 0.00 65 1027.6
20260906064956 22 0.0 0.0 0.00 0.00 0.00 65 1027.6
20260906063956 22 0.0 0.0 0.00 0.00 0.00 68 1027.5
20260906062956 21 0.0 0.0 0.00 0.00 0.00 72 1027.5
20260906061956 20 0.0 0.0 0.00 0.00 0.00 77 1027.6
20260906060956 20 0.0 0.0 0.00 0.00 0.00 79 1027.5
20260906055956 20 0.0 0.0 0.00 0.00 0.00 80 1027.6
20260906054956 18 0.0 0.0 0.00 0.00 0.00 84 1027.6
20260906053956 18 0.0 0.0 0.00 0.00 0.00 83 1027.5
20260906052956 18 0.0 0.0 0.00 0.00 0.00 88 1027.6
20260906051956 18 0.0 0.0 0.00 0.00 0.00 89 1027.5
20260906050956 17 0.0 0.0 0.00 0.00 0.00 90 1027.4
20260906045956 17 0.0 0.0 0.00 0.00 0.00 93 1027.3
20260906044956 16 0.0 0.0 0.00 0.00 0.00 95 1027.3
20260906043956 16 0.0 0.0 0.00 0.00 0.00 96 1027.2
20260906042956 16 0.0 0.0 0.00 0.00 0.00 96 1027.2
20260906041956 16 0.0 0.0 0.00 0.00 0.00 96 1027.1
20260906040956 15 0.0 0.0 0.00 0.00 0.00 95 1027.0
20260906035956 15 0.0 0.0 0.00 0.00 0.00 95 1026.9
20260906034956 15 0.0 0.0 0.00 0.00 0.00 94 1026.9
20260906033956 15 0.0 0.0 0.00 0.00 0.00 92 1026.9
20260906032956 15 0.0 0.0 0.00 0.00 0.00 91 1026.9
20260906031956 15 0.0 0.0 0.00 0.00 0.00 91 1026.8
20260906030956 15 0.0 0.0 0.00 0.00 0.00 90 1026.8
20260906025956 15 0.0 0.0 0.00 0.00 0.00 91 1026.8
20260906024956 15 0.0 0.0 0.00 0.00 0.00 91 1026.7
20260906023956 15 0.0 0.0 0.00 0.00 0.00 88 1026.8
20260906022956 15 0.0 0.0 0.00 0.00 0.00 88 1026.6
20260906021956 15 0.0 0.0 0.00 0.00 0.00 89 1026.4
20260906020956 15 0.0 0.0 0.00 0.00 0.00 90 1026.4
20260906015956 15 0.0 0.0 0.00 0.00 0.00 90 1026.4
20260906014956 15 0.0 0.0 0.00 0.00 0.00 92 1026.2
20260906013956 15 0.0 0.0 0.00 0.00 0.00 90 1026.3
20260906012956 15 0.0 0.0 0.00 0.00 0.00 90 1026.3
20260906011956 15 0.0 0.0 0.00 0.00 0.00 89 1026.2
20260906010956 15 0.0 0.0 0.00 0.00 0.00 91 1026.3
20260906005955 15 0.0 0.0 0.00 0.00 0.00 91 1026.3
20260906004955 16 0.0 0.0 0.00 0.00 0.00 89 1026.3
20260906003956 16 0.0 0.0 0.00 0.00 0.00 90 1026.3
20260906002955 16 0.0 0.0 0.00 0.00 0.00 89 1026.3
20260906001956 16 0.0 0.0 0.00 0.00 0.00 91 1026.3
20260906000955 15 0.0 0.0 0.00 0.00 0.00 92 1026.4
20260905235955 16 0.0 0.0 0.00 0.00 0.00 91 1026.3
20260905234955 16 0.0 0.0 0.00 0.00 0.00 90 1026.2
20260905233955 16 0.0 0.0 0.00 0.00 0.00 89 1026.3
20260905232955 16 0.0 0.0 0.00 0.00 0.00 91 1026.3
20260905231955 16 0.0 0.0 0.00 0.00 0.00 90 1026.4
20260905230955 16 0.0 0.0 0.00 0.00 0.00 89 1026.4
20260905225955 16 0.0 0.0 0.00 0.00 0.00 90 1026.5
20260905224955 16 0.0 0.0 0.00 0.00 0.00 88 1026.6
20260905223955 17 0.0 0.0 0.00 0.00 0.00 88 1026.6
20260905222955 17 0.0 0.0 0.00 0.00 0.00 89 1026.5
20260905221955 17 0.0 0.0 0.00 0.00 0.00 89 1026.6
20260905220955 16 0.0 0.0 0.00 0.00 0.00 89 1026.7
20260905215955 17 0.0 0.0 0.00 0.00 0.00 88 1026.9
20260905214955 17 0.0 0.0 0.00 0.00 0.00 89 1026.9
20260905213955 17 0.0 0.0 0.00 0.00 0.00 89 1026.9
20260905212955 17 0.0 0.0 0.00 0.00 0.00 87 1027.0
20260905211955 17 0.0 0.0 0.00 0.00 0.00 90 1027.1
20260905210955 17 0.0 0.0 0.00 0.00 0.00 89 1027.0
20260905205955 17 0.0 0.0 0.00 0.00 0.00 90 1027.0
20260905204955 17 0.0 0.0 0.00 0.00 0.00 90 1027.0
20260905203955 17 0.0 0.0 0.00 0.00 0.00 90 1027.0
20260905202955 17 0.0 0.0 0.00 0.00 0.00 90 1027.1
20260905201955 17 0.0 0.0 0.00 0.00 0.00 90 1026.9
20260905200955 17 0.0 0.0 0.00 0.00 0.00 91 1026.9
20260905195955 17 0.0 0.0 0.00 0.00 0.00 90 1026.9
20260905194955 18 0.0 0.0 0.00 0.00 0.00 89 1027.0
20260905193955 18 0.0 0.0 0.00 0.00 0.00 90 1027.0
20260905192955 18 0.0 0.0 0.00 0.00 0.00 90 1027.0
20260905191955 18 0.0 0.0 0.00 0.00 0.00 89 1027.0
20260905190955 18 0.0 0.0 0.00 0.00 0.00 89 1026.9
20260905185955 18 0.0 0.0 0.00 0.00 0.00 88 1027.0
20260905184955 18 0.0 0.0 0.00 0.00 0.00 86 1027.1
20260905183955 19 0.0 0.0 0.00 0.00 0.00 85 1027.1
20260905182955 19 0.0 0.0 0.00 0.00 0.00 84 1027.1
20260905181955 20 0.0 0.0 0.00 0.00 0.00 84 1027.1
20260905180955 20 0.0 0.0 0.00 0.00 0.00 82 1027.2
20260905175955 20 0.0 0.0 0.00 0.00 0.00 82 1027.1
20260905174955 20 0.0 0.0 0.00 0.00 0.00 80 1027.1
20260905173955 21 0.0 0.0 0.00 0.00 0.00 80 1027.0
20260905172955 21 0.0 0.0 0.00 0.00 0.00 79 1026.9
20260905171955 21 0.0 0.0 0.00 0.00 0.00 78 1026.8
20260905170955 22 0.0 0.0 0.00 0.00 0.00 77 1026.7
20260905165955 22 0.0 0.0 0.00 0.00 0.00 77 1026.6
20260905164955 22 0.0 0.0 0.00 0.00 0.00 76 1026.5
20260905163955 22 0.0 0.0 0.00 0.00 0.00 75 1026.5
20260905162955 23 0.0 0.0 0.00 0.00 0.00 72 1026.4
20260905161955 23 0.0 0.0 0.00 0.00 0.00 71 1026.4
20260905160955 23 0.0 0.0 0.00 0.00 0.00 70 1026.4
20260905155955 23 0.0 0.0 0.00 0.00 0.00 67 1026.4
20260905154955 24 0.0 0.0 0.00 0.00 0.00 65 1026.4
20260905153955 25 0.0 0.0 0.00 0.00 0.00 62 1026.4
20260905152955 25 0.0 0.0 0.00 0.00 0.00 59 1026.5
20260905151955 26 0.0 0.0 0.00 0.00 0.00 58 1026.6
20260905150955 26 0.0 0.0 0.00 0.00 0.00 58 1026.5
20260905145955 26 0.0 0.0 0.00 0.00 0.00 58 1026.5
20260905144955 27 0.0 0.0 0.00 0.00 0.00 57 1026.6
20260905143955 27 0.0 0.0 0.00 0.00 0.00 55 1026.6
20260905142955 28 0.0 0.0 0.00 0.00 0.00 55 1026.6
20260905141955 28 0.0 0.0 0.00 0.00 0.00 55 1026.6
20260905140955 28 0.0 0.0 0.00 0.00 0.00 55 1026.5
20260905135955 28 0.0 0.0 0.00 0.00 0.00 57 1026.5
20260905134955 28 0.0 0.0 0.00 0.00 0.00 56 1026.6
20260905133955 28 0.0 0.0 0.00 0.00 0.00 56 1026.6
20260905132955 29 0.0 0.0 0.00 0.00 0.00 56 1026.7
20260905131955 29 0.0 0.0 0.00 0.00 0.00 56 1026.7
20260905130955 29 0.0 0.0 0.00 0.00 0.00 56 1026.7
20260905125955 29 0.0 0.0 0.00 0.00 0.00 55 1026.8
20260905124955 30 0.0 0.0 0.00 0.00 0.00 56 1026.7
20260905123955 30 0.0 0.0 0.00 0.00 0.00 53 1026.8
20260905122955 30 0.0 0.0 0.00 0.00 0.00 55 1026.9
20260905121954 30 0.0 0.0 0.00 0.00 0.00 54 1027.0
20260905120954 30 0.0 0.0 0.00 0.00 0.00 54 1027.0
20260905115955 30 0.0 0.0 0.00 0.00 0.00 56 1027.1
20260905114954 31 0.0 0.0 0.00 0.00 0.00 53 1027.2
20260905113954 31 0.0 0.0 0.00 0.00 0.00 52 1027.3
20260905112954 32 0.0 0.0 0.00 0.00 0.00 52 1027.4